Regional Weather Roundup
Issued by NWS

Home | Current Version | Previous Version | Text Only | Print | Product List | Glossary On
Versions: 1 2 3 4 5 6 7 8 9 10 11 12 13 14 15 16 17 18 19 20 21 22 23 24 25 26 27 28 29 30 31 32 33 34 35 36 37 38 39 40 41 42 43 44 45 46 47 48 49 50
427
ASUS44 KLIX 302201
RWRLA
LOUISIANA WEATHER ROUNDUP
NATIONAL WEATHER SERVICE NEW ORLEANS LA
500 PM CDT SAT AUG 30 2014

NOTE: "FAIR" INDICATES FEW OR NO CLOUDS BELOW 12,000 FEET WITH NO
      SIGNIFICANT WEATHER AND/OR OBSTRUCTIONS TO VISIBILITY.
      SKY/WX - SKY CONDITION AND SIGNIFICANT WEATHER.
      TMP - AIR TEMPERATURE.    DP   - DEWPOINT TEMPERATURE.
      RH  - RELATIVE HUMIDITY.  PRES - PRESSURE.
      HX  - HEAT INDEX.         WCI  - WIND CHILL INDEX.

*  THESE STATIONS ARE NOT NWS OR FAA STATIONS AND ARE NOT UNDER
   NWS QUALITY CONTROL.

LAZ040-048-061>063-065-066-069-302300-
SOUTHEAST LOUISIANA

CITY           SKY/WX    TMP DP  RH WIND       PRES   REMARKS
N.O. AUDUBON     N/A     81  74  80 MISG        N/A
N.O. INTL ARPT CLOUDY    80  74  81 S5        30.01F
N.O. LAKEFRONT CLOUDY    80  73  79 SE9       30.01F
N.O. DOWNTOWN* FAIR      93  70  46 S5        30.02S HX  99
SLIDELL        CLOUDY    77  73  87 SE7       30.01F
BATON ROUGE    RAIN      75  73  93 S7        30.02R FOG
BOOTHVILLE     CLOUDY    87  79  76 S7        30.01F HX 101
BELLE CHASSE   CLOUDY    81  73  76 CALM      30.00F
BOGALUSA*      FAIR      77  72  84 CALM      30.04S
GALLIANO*      NOT AVBL
NEW ROADS*     LGT RAIN  74  73  96 SE6       30.01S
GONZALES*      TSTM      76  76 100 NW8       30.03R
HAMMOND*       NOT AVBL
HOUMA*         MOSUNNY   82  73  74 SE3       30.00S
PORT FOURCHON* CLEAR     88  77  70 S12       30.02R HX 100

$$

LAZ041-044-053-054-302300-
SOUTHWEST LOUISIANA

CITY           SKY/WX    TMP DP  RH WIND       PRES   REMARKS
LAKE CHARLES   LGT RAIN  78  76  93 S7        29.97S
LAFAYETTE      LGT RAIN  76  73  91 SW8       30.01S
PATTERSON        N/A     75  73  94 CALM      30.05R
SALT POINT       N/A     79  76  90 VRB3      30.03R
NEW IBERIA     RAIN      76  74  93 S8        30.03R FOG
CHENAULT AIRPK NOT AVBL

$$

LAZ027-028-302300-
CENTRAL LOUISIANA

CITY           SKY/WX    TMP DP  RH WIND       PRES   REMARKS
FORT POLK      CLOUDY    77  74  90 S7        29.97R
ALEXANDRIA INT CLOUDY    77  74  90 S8        29.95R
ALEXANDRIA     CLOUDY    78  74  87 S7        29.97S

$$

LAZ001-002-302300-
NORTHWEST LOUISIANA

CITY           SKY/WX    TMP DP  RH WIND       PRES   REMARKS
SHREVEPORT     LGT RAIN  84  73  69 E9        29.91S
BARKSDALE AFB  PTSUNNY   84  72  67 SE8       29.91F
DTN SHREVEPORT PTSUNNY   83  70  64 CALM      29.91F

$$

LAZ014-016-302300-
NORTHEAST LOUISIANA

CITY           SKY/WX    TMP DP  RH WIND       PRES   REMARKS
MONROE         LGT RAIN  76  74  93 S7        29.95S
TALLULAH       LGT RAIN  76  73  91 S12       29.97F

$$




USA.gov is the U.S. government's official web portal to all federal, state and local government web resources and services.